QPF
0.00 0.00 0.00 0.00 0.00 0.00 0.00 0.00 0.00 0.00 0.00 0.00 0.00 0.00 0.00 0.00 0.00 0.00 0.00 0.00 0.00 0.00 0.00 0.00 0.01 0.01 0.02 0.01 0.01 0.01 0.01 0.01 0.02 0.02 0.02 0.01 0.01 0.01 0.01 0.00 0.00 0.01 0.01
0.00 0.00 0.00 0.00 0.01 0.00 0.00 0.00 0.00 0.00 0.00 0.00 0.00 0.00 0.00 0.00 0.00 0.00 0.00 0.00 0.00 0.00 0.00 0.00 0.00 0.00 0.01 0.01 0.01 0.01 0.01 0.01 0.01 0.01 0.02 0.02 0.01 0.01 0.01 0.01 0.00 0.01 0.02
0.00 0.00 0.00 0.00 0.00 0.00 0.00 0.00 0.00 0.00 0.00 0.00 0.00 0.00 0.00 0.00 0.00 0.00 0.00 0.00 0.00 0.00 0.00 0.00 0.00 0.00 0.00 0.01 0.01 0.01 0.01 0.01 0.01 0.01 0.02 0.02 0.02 0.01 0.01 0.01 0.00 0.01 0.01
0.00 0.00 0.01 0.01 0.00 0.00 0.00 0.00 0.00 0.00 0.00 0.00 0.00 0.00 0.00 0.00 0.00 0.00 0.00 0.00 0.00 0.00 0.00 0.00 0.00 0.00 0.01 0.01 0.01 0.01 0.00 0.00 0.01 0.01 0.02 0.01 0.02 0.01 0.01 0.01 0.01 0.01 0.02
0.00 0.00 0.01 0.01 0.00 0.00 0.00 0.00 0.00 0.00 0.00 0.00 0.00 0.00 0.00 0.00 0.00 0.00 0.00 0.00 0.00 0.00 0.00 0.00 0.00 0.00 0.00 0.00 0.00 0.01 0.01 0.01 0.01 0.01 0.01 0.01 0.01 0.01 0.01 0.01 0.01 0.02 0.02
0.01 0.00 0.00 0.00 0.00 0.00 0.00 0.00 0.00 0.00 0.00 0.00 0.00 0.00 0.00 0.00 0.00 0.00 0.00 0.00 0.00 0.00 0.00 0.00 0.00 0.00 0.00 0.00 0.00 0.00 0.00 0.01 0.01 0.01 0.01 0.01 0.00 0.00 0.00 0.01 0.01 0.02 0.02
0.01 0.00 0.00 0.00 0.00 0.00 0.00 0.00 0.00 0.00 0.00 0.00 0.00 0.00 0.00 0.00 0.00 0.00 0.00 0.00 0.00 0.00 0.00 0.00 0.01 0.01 0.00 0.00 0.00 0.00 0.00 0.00 0.00 0.01 0.01 0.00 0.00 0.00 0.01 0.01 0.01 0.01 0.01
0.00 0.00 0.00 0.00 0.00 0.00 0.00 0.00 0.00 0.00 0.00 0.00 0.00 0.00 0.00 0.00 0.00 0.00 0.00 0.00 0.00 0.00 0.00 0.00 0.00 0.00 0.00 0.00 0.00 0.00 0.00 0.00 0.00 0.00 0.00 0.00 0.01 0.01 0.01 0.01 0.02 0.02 0.01
0.00 0.00 0.00 0.00 0.00 0.00 0.00 0.00 0.00 0.00 0.00 0.00 0.00 0.00 0.00 0.00 0.00 0.00 0.00 0.00 0.00 0.00 0.00 0.00 0.00 0.00 0.00 0.00 0.00 0.00 0.00 0.00 0.00 0.00 0.00 0.00 0.00 0.00 0.01 0.01 0.02 0.02 0.02
0.00 0.00 0.00 0.00 0.00 0.00 0.00 0.00 0.00 0.00 0.00 0.00 0.00 0.00 0.00 0.00 0.00 0.00 0.00 0.00 0.00 0.00 0.00 0.00 0.00 0.00 0.00 0.00 0.00 0.00 0.00 0.00 0.00 0.01 0.00 0.00 0.00 0.00 0.00 0.00 0.01 0.02 0.02
0.00 0.00 0.00 0.00 0.00 0.00 0.00 0.00 0.00 0.00 0.00 0.00 0.00 0.00 0.00 0.00 0.00 0.00 0.00 0.00 0.00 0.00 0.00 0.00 0.00 0.00 0.00 0.00 0.00 0.00 0.00 0.00 0.01 0.01 0.01 0.01 0.00 0.00 0.00 0.00 0.01 0.01 0.02
0.00 0.00 0.00 0.00 0.00 0.00 0.00 0.00 0.00 0.00 0.00 0.00 0.00 0.00 0.00 0.00 0.00 0.00 0.00 0.00 0.00 0.00 0.00 0.00 0.00 0.00 0.00 0.00 0.00 0.00 0.00 0.00 0.00 0.01 0.01 0.01 0.01 0.00 0.00 0.01 0.00 0.01 0.01
0.00 0.00 0.00 0.00 0.00 0.00 0.00 0.00 0.00 0.00 0.00 0.00 0.00 0.00 0.00 0.00 0.00 0.00 0.00 0.00 0.00 0.00 0.00 0.00 0.01 0.01 0.01 0.01 0.01 0.00 0.00 0.00 0.00 0.01 0.01 0.01 0.00 0.00 0.00 0.00 0.00 0.01 0.01
0.00 0.00 0.00 0.00 0.00 0.00 0.00 0.00 0.00 0.00 0.00 0.00 0.00 0.00 0.00 0.00 0.00 0.00 0.00 0.00 0.00 0.00 0.00 0.01 0.01 0.01 0.01 0.02 0.02 0.01 0.01 0.01 0.01 0.01 0.00 0.00 0.01 0.00 0.00 0.00 0.00 0.01 0.01
0.00 0.00 0.00 0.00 0.00 0.00 0.00 0.00 0.00 0.00 0.00 0.00 0.00 0.00 0.00 0.00 0.00 0.00 0.00 0.00 0.00 0.00 0.01 0.02 0.02 0.02 0.02 0.01 0.02 0.03 0.02 0.01 0.01 0.01 0.01 0.01 0.01 0.01 0.01 0.01 0.01 0.01 0.02
0.00 0.00 0.00 0.00 0.00 0.00 0.00 0.00 0.00 0.01 0.00 0.00 0.00 0.00 0.00 0.00 0.00 0.00 0.00 0.00 0.00 0.01 0.01 0.01 0.01 0.02 0.02 0.02 0.02 0.02 0.02 0.01 0.01 0.01 0.01 0.01 0.01 0.01 0.01 0.01 0.01 0.01 0.02
0.00 0.00 0.00 0.00 0.00 0.00 0.00 0.00 0.00 0.00 0.00 0.00 0.00 0.00 0.00 0.00 0.00 0.00 0.00 0.00 0.00 0.00 0.01 0.02 0.02 0.02 0.02 0.02 0.02 0.02 0.02 0.02 0.01 0.01 0.01 0.01 0.02 0.02 0.02 0.01 0.01 0.01 0.01
0.00 0.00 0.00 0.00 0.00 0.00 0.00 0.00 0.00 0.00 0.00 0.00 0.00 0.00 0.00 0.00 0.00 0.00 0.00 0.00 0.00 0.01 0.03 0.05 0.07 0.06 0.03 0.03 0.04 0.03 0.03 0.02 0.01 0.01 0.01 0.01 0.02 0.02 0.02 0.02 0.02 0.01 0.01
0.00 0.00 0.00 0.00 0.00 0.00 0.00 0.00 0.00 0.00 0.00 0.00 0.00 0.00 0.00 0.00 0.00 0.00 0.00 0.00 0.01 0.02 0.02 0.02 0.03 0.04 0.03 0.02 0.02 0.02 0.02 0.02 0.01 0.01 0.01 0.02 0.02 0.02 0.03 0.03 0.02 0.02 0.01
0.00 0.00 0.00 0.00 0.00 0.00 0.00 0.00 0.00 0.00 0.00 0.00 0.00 0.00 0.00 0.00 0.00 0.00 0.00 0.00 0.01 0.01 0.01 0.01 0.01 0.01 0.01 0.02 0.01 0.02 0.02 0.02 0.01 0.01 0.01 0.02 0.03 0.03 0.03 0.04 0.05 0.04 0.03
0.00 0.00 0.00 0.00 0.00 0.00 0.00 0.00 0.00 0.00 0.00 0.00 0.00 0.00 0.00 0.00 0.00 0.00 0.00 0.00 0.00 0.01 0.00 0.00 0.00 0.01 0.03 0.05 0.03 0.02 0.02 0.02 0.01 0.01 0.02 0.01 0.02 0.02 0.02 0.03 0.04 0.04 0.04
0.00 0.00 0.00 0.00 0.00 0.00 0.00 0.00 0.00 0.00 0.00 0.00 0.00 0.00 0.00 0.00 0.00 0.00 0.00 0.00 0.00 0.01 0.00 0.00 0.00 0.01 0.02 0.04 0.04 0.03 0.03 0.02 0.02 0.02 0.02 0.02 0.01 0.01 0.02 0.02 0.03 0.03 0.03
0.00 0.00 0.00 0.00 0.00 0.00 0.00 0.00 0.00 0.00 0.00 0.00 0.00 0.00 0.00 0.00 0.00 0.00 0.00 0.00 0.00 0.01 0.01 0.00 0.01 0.01 0.01 0.02 0.03 0.03 0.03 0.03 0.02 0.02 0.02 0.02 0.01 0.01 0.02 0.02 0.02 0.03 0.03
0.00 0.00 0.00 0.00 0.00 0.00 0.00 0.00 0.00 0.00 0.00 0.00 0.00 0.00 0.00 0.00 0.00 0.00 0.00 0.00 0.00 0.00 0.01 0.01 0.00 0.00 0.01 0.01 0.03 0.02 0.03 0.04 0.03 0.02 0.02 0.02 0.02 0.02 0.02 0.02 0.02 0.02 0.03
0.00 0.00 0.00 0.00 0.00 0.00 0.00 0.00 0.00 0.00 0.00 0.00 0.00 0.00 0.00 0.00 0.00 0.00 0.00 0.00 0.00 0.00 0.00 0.00 0.00 0.00 0.01 0.01 0.02 0.02 0.02 0.03 0.04 0.02 0.01 0.02 0.02 0.02 0.02 0.02 0.02 0.02 0.03
0.00 0.00 0.00 0.00 0.00 0.00 0.00 0.00 0.00 0.00 0.00 0.00 0.00 0.00 0.00 0.00 0.00 0.00 0.00 0.00 0.00 0.00 0.00 0.00 0.00 0.00 0.01 0.01 0.01 0.01 0.01 0.01 0.03 0.03 0.02 0.02 0.02 0.02 0.02 0.02 0.02 0.02 0.03
MSLP
1017.69 1017.93 1018.16 1018.36 1018.52 1018.63 1018.70 1018.73 1018.75 1018.77 1018.80 1018.86 1018.95 1019.07 1019.22 1019.38 1019.54 1019.69 1019.84 1019.97 1020.09 1020.19 1020.30 1020.39 1020.47 1020.54 1020.59 1020.62 1020.63 1020.62 1020.58 1020.53 1020.46 1020.39 1020.31 1020.22 1020.12 1020.01 1019.87 1019.72 1019.54 1019.34 1019.13
1017.76 1018.00 1018.23 1018.44 1018.60 1018.73 1018.82 1018.88 1018.92 1018.95 1018.99 1019.06 1019.14 1019.26 1019.40 1019.56 1019.74 1019.91 1020.09 1020.26 1020.43 1020.59 1020.73 1020.86 1020.97 1021.05 1021.11 1021.14 1021.14 1021.12 1021.08 1021.02 1020.96 1020.89 1020.82 1020.74 1020.65 1020.55 1020.42 1020.26 1020.06 1019.82 1019.56
1017.83 1018.08 1018.32 1018.54 1018.73 1018.88 1019.01 1019.10 1019.17 1019.24 1019.31 1019.39 1019.49 1019.61 1019.75 1019.92 1020.10 1020.29 1020.48 1020.68 1020.87 1021.06 1021.23 1021.37 1021.50 1021.59 1021.65 1021.67 1021.66 1021.62 1021.56 1021.50 1021.43 1021.36 1021.28 1021.21 1021.13 1021.02 1020.89 1020.71 1020.49 1020.22 1019.90
1017.85 1018.14 1018.41 1018.66 1018.88 1019.07 1019.24 1019.38 1019.51 1019.62 1019.73 1019.84 1019.97 1020.10 1020.26 1020.42 1020.60 1020.80 1020.99 1021.19 1021.39 1021.58 1021.76 1021.91 1022.03 1022.11 1022.16 1022.17 1022.15 1022.09 1022.02 1021.94 1021.86 1021.78 1021.70 1021.61 1021.52 1021.40 1021.25 1021.05 1020.80 1020.49 1020.13
1017.79 1018.13 1018.45 1018.75 1019.02 1019.27 1019.50 1019.70 1019.89 1020.05 1020.22 1020.37 1020.53 1020.68 1020.85 1021.01 1021.19 1021.37 1021.55 1021.74 1021.92 1022.10 1022.25 1022.39 1022.50 1022.57 1022.61 1022.60 1022.57 1022.50 1022.42 1022.33 1022.23 1022.13 1022.03 1021.93 1021.81 1021.67 1021.49 1021.26 1020.98 1020.64 1020.25
1017.62 1018.03 1018.42 1018.78 1019.12 1019.43 1019.72 1019.99 1020.24 1020.47 1020.68 1020.88 1021.07 1021.25 1021.42 1021.59 1021.75 1021.91 1022.07 1022.22 1022.37 1022.52 1022.65 1022.76 1022.84 1022.90 1022.93 1022.92 1022.88 1022.82 1022.73 1022.63 1022.52 1022.41 1022.29 1022.16 1022.02 1021.84 1021.63 1021.37 1021.05 1020.69 1020.27
1017.31 1017.80 1018.27 1018.70 1019.11 1019.49 1019.85 1020.17 1020.48 1020.77 1021.03 1021.26 1021.48 1021.68 1021.86 1022.02 1022.17 1022.30 1022.43 1022.55 1022.66 1022.77 1022.86 1022.95 1023.02 1023.07 1023.09 1023.09 1023.06 1023.00 1022.93 1022.83 1022.72 1022.60 1022.47 1022.31 1022.14 1021.93 1021.69 1021.40 1021.06 1020.68 1020.25
1016.86 1017.44 1017.98 1018.48 1018.95 1019.40 1019.81 1020.19 1020.54 1020.86 1021.16 1021.43 1021.67 1021.87 1022.06 1022.21 1022.35 1022.46 1022.56 1022.65 1022.73 1022.81 1022.88 1022.94 1023.00 1023.04 1023.08 1023.09 1023.08 1023.05 1022.99 1022.92 1022.82 1022.69 1022.55 1022.38 1022.18 1021.95 1021.69 1021.38 1021.03 1020.64 1020.22
1016.28 1016.93 1017.53 1018.10 1018.62 1019.11 1019.56 1019.98 1020.36 1020.71 1021.03 1021.32 1021.57 1021.79 1021.98 1022.14 1022.27 1022.38 1022.46 1022.54 1022.60 1022.65 1022.71 1022.76 1022.81 1022.86 1022.91 1022.94 1022.96 1022.96 1022.93 1022.87 1022.79 1022.67 1022.52 1022.35 1022.14 1021.89 1021.62 1021.31 1020.97 1020.59 1020.19
1015.59 1016.28 1016.94 1017.54 1018.11 1018.63 1019.11 1019.54 1019.95 1020.31 1020.64 1020.94 1021.21 1021.45 1021.65 1021.83 1021.97 1022.08 1022.18 1022.25 1022.31 1022.36 1022.41 1022.46 1022.52 1022.58 1022.63 1022.68 1022.72 1022.74 1022.74 1022.70 1022.62 1022.52 1022.37 1022.19 1021.97 1021.73 1021.46 1021.16 1020.84 1020.49 1020.12
1014.82 1015.53 1016.21 1016.85 1017.43 1017.97 1018.46 1018.91 1019.32 1019.70 1020.04 1020.36 1020.65 1020.91 1021.14 1021.34 1021.51 1021.66 1021.77 1021.87 1021.94 1022.00 1022.06 1022.11 1022.17 1022.23 1022.29 1022.34 1022.39 1022.42 1022.41 1022.38 1022.31 1022.20 1022.05 1021.87 1021.65 1021.42 1021.16 1020.88 1020.59 1020.28 1019.95
1013.99 1014.71 1015.40 1016.04 1016.63 1017.18 1017.68 1018.13 1018.55 1018.94 1019.30 1019.63 1019.95 1020.25 1020.52 1020.77 1020.99 1021.18 1021.33 1021.46 1021.56 1021.64 1021.70 1021.76 1021.81 1021.86 1021.90 1021.94 1021.97 1021.98 1021.96 1021.91 1021.83 1021.71 1021.55 1021.36 1021.15 1020.92 1020.68 1020.43 1020.17 1019.91 1019.63
1013.13 1013.84 1014.52 1015.16 1015.75 1016.30 1016.81 1017.27 1017.70 1018.10 1018.48 1018.85 1019.20 1019.54 1019.87 1020.17 1020.45 1020.69 1020.89 1021.06 1021.19 1021.29 1021.36 1021.40 1021.43 1021.46 1021.47 1021.47 1021.46 1021.43 1021.37 1021.29 1021.18 1021.03 1020.85 1020.65 1020.43 1020.21 1019.99 1019.77 1019.55 1019.33 1019.09
1012.24 1012.93 1013.60 1014.23 1014.83 1015.38 1015.89 1016.37 1016.81 1017.24 1017.65 1018.05 1018.44 1018.83 1019.21 1019.57 1019.90 1020.19 1020.45 1020.65 1020.81 1020.91 1020.98 1021.01 1021.01 1020.99 1020.96 1020.91 1020.84 1020.75 1020.65 1020.52 1020.36 1020.18 1019.98 1019.76 1019.54 1019.32 1019.11 1018.92 1018.73 1018.54 1018.34
1011.34 1012.01 1012.66 1013.28 1013.87 1014.43 1014.95 1015.44 1015.91 1016.36 1016.79 1017.23 1017.66 1018.09 1018.52 1018.92 1019.30 1019.63 1019.92 1020.15 1020.32 1020.43 1020.49 1020.50 1020.47 1020.40 1020.32 1020.21 1020.09 1019.95 1019.79 1019.61 1019.42 1019.20 1018.97 1018.74 1018.52 1018.30 1018.10 1017.92 1017.75 1017.59 1017.43
1010.42 1011.05 1011.68 1012.29 1012.88 1013.44 1013.97 1014.47 1014.95 1015.42 1015.88 1016.34 1016.80 1017.26 1017.72 1018.15 1018.55 1018.92 1019.23 1019.47 1019.65 1019.76 1019.80 1019.79 1019.73 1019.63 1019.51 1019.36 1019.20 1019.01 1018.82 1018.61 1018.39 1018.16 1017.92 1017.68 1017.45 1017.23 1017.03 1016.86 1016.70 1016.56 1016.41
1009.47 1010.06 1010.66 1011.25 1011.83 1012.38 1012.91 1013.42 1013.91 1014.39 1014.86 1015.33 1015.80 1016.27 1016.73 1017.17 1017.59 1017.96 1018.28 1018.53 1018.71 1018.82 1018.86 1018.84 1018.77 1018.66 1018.52 1018.35 1018.17 1017.98 1017.78 1017.57 1017.34 1017.11 1016.88 1016.64 1016.41 1016.20 1016.00 1015.83 1015.67 1015.53 1015.39
1008.48 1009.02 1009.58 1010.14 1010.69 1011.23 1011.74 1012.24 1012.72 1013.20 1013.66 1014.13 1014.59 1015.06 1015.51 1015.95 1016.36 1016.73 1017.04 1017.30 1017.48 1017.60 1017.65 1017.64 1017.58 1017.49 1017.36 1017.22 1017.06 1016.89 1016.71 1016.52 1016.33 1016.12 1015.90 1015.68 1015.47 1015.26 1015.06 1014.88 1014.71 1014.56 1014.41
1007.48 1007.96 1008.45 1008.96 1009.47 1009.97 1010.45 1010.92 1011.39 1011.84 1012.29 1012.73 1013.18 1013.62 1014.06 1014.49 1014.88 1015.25 1015.56 1015.82 1016.02 1016.15 1016.23 1016.25 1016.23 1016.18 1016.10 1016.00 1015.90 1015.78 1015.65 1015.51 1015.36 1015.20 1015.02 1014.83 1014.63 1014.43 1014.23 1014.03 1013.85 1013.67 1013.51
1006.50 1006.89 1007.30 1007.74 1008.18 1008.63 1009.07 1009.50 1009.92 1010.34 1010.76 1011.19 1011.61 1012.03 1012.45 1012.86 1013.25 1013.61 1013.92 1014.20 1014.41 1014.58 1014.70 1014.77 1014.80 1014.81 1014.79 1014.77 1014.73 1014.68 1014.62 1014.55 1014.46 1014.34 1014.21 1014.05 1013.87 1013.67 1013.46 1013.25 1013.05 1012.85 1012.65
1005.60 1005.88 1006.20 1006.54 1006.90 1007.27 1007.65 1008.03 1008.42 1008.80 1009.19 1009.59 1009.99 1010.39 1010.80 1011.20 1011.58 1011.95 1012.27 1012.57 1012.81 1013.02 1013.18 1013.30 1013.40 1013.47 1013.52 1013.56 1013.59 1013.61 1013.62 1013.61 1013.57 1013.51 1013.41 1013.28 1013.12 1012.93 1012.71 1012.49 1012.25 1012.02 1011.80
1004.85 1005.01 1005.21 1005.45 1005.72 1006.02 1006.32 1006.65 1006.98 1007.33 1007.69 1008.06 1008.45 1008.84 1009.24 1009.64 1010.03 1010.40 1010.75 1011.06 1011.34 1011.58 1011.78 1011.95 1012.09 1012.22 1012.33 1012.42 1012.50 1012.58 1012.63 1012.67 1012.68 1012.65 1012.58 1012.47 1012.32 1012.13 1011.91 1011.66 1011.41 1011.15 1010.90
1004.32 1004.36 1004.45 1004.58 1004.76 1004.96 1005.20 1005.46 1005.75 1006.07 1006.40 1006.76 1007.13 1007.52 1007.92 1008.32 1008.72 1009.10 1009.46 1009.79 1010.08 1010.34 1010.57 1010.77 1010.94 1011.09 1011.23 1011.35 1011.46 1011.56 1011.64 1011.70 1011.73 1011.72 1011.66 1011.56 1011.41 1011.22 1010.99 1010.74 1010.47 1010.19 1009.92
1004.07 1003.99 1003.97 1004.00 1004.08 1004.21 1004.38 1004.59 1004.83 1005.11 1005.43 1005.77 1006.13 1006.51 1006.91 1007.31 1007.70 1008.08 1008.44 1008.77 1009.06 1009.33 1009.56 1009.76 1009.93 1010.08 1010.22 1010.34 1010.45 1010.55 1010.63 1010.68 1010.71 1010.70 1010.64 1010.54 1010.39 1010.20 1009.97 1009.71 1009.42 1009.14 1008.85
1004.10 1003.92 1003.81 1003.75 1003.75 1003.80 1003.91 1004.06 1004.27 1004.51 1004.80 1005.12 1005.47 1005.83 1006.21 1006.59 1006.97 1007.33 1007.66 1007.97 1008.25 1008.49 1008.70 1008.87 1009.03 1009.16 1009.27 1009.37 1009.46 1009.54 1009.59 1009.63 1009.64 1009.62 1009.55 1009.44 1009.29 1009.09 1008.86 1008.60 1008.31 1008.02 1007.73
1004.38 1004.13 1003.94 1003.80 1003.73 1003.72 1003.77 1003.88 1004.04 1004.25 1004.50 1004.79 1005.10 1005.44 1005.78 1006.12 1006.46 1006.77 1007.06 1007.33 1007.56 1007.76 1007.93 1008.07 1008.18 1008.28 1008.36 1008.43 1008.48 1008.53 1008.56 1008.57 1008.55 1008.51 1008.42 1008.30 1008.14 1007.94 1007.71 1007.45 1007.17 1006.88 1006.59
Thickness
5718 5717 5715 5714 5713 5713 5712 5710 5710 5709 5708 5707 5706 5705 5704 5702 5702 5700 5700 5698 5698 5698 5697 5696 5695 5694 5695 5695 5694 5693 5692 5691 5689 5692 5696 5697 5697 5697 5698 5700 5702 5704 5706
5715 5715 5713 5712 5711 5710 5709 5708 5708 5707 5706 5705 5703 5702 5701 5700 5699 5698 5697 5696 5696 5695 5694 5694 5693 5693 5692 5692 5691 5691 5691 5690 5688 5687 5690 5692 5693 5694 5694 5696 5699 5701 5702
5712 5711 5710 5709 5708 5707 5706 5705 5704 5704 5702 5701 5700 5698 5697 5697 5696 5695 5695 5694 5693 5692 5692 5691 5691 5690 5690 5689 5688 5689 5688 5688 5687 5686 5686 5687 5689 5690 5691 5692 5695 5696 5699
5708 5708 5707 5706 5704 5703 5702 5700 5700 5699 5698 5697 5696 5694 5693 5693 5692 5692 5691 5691 5690 5689 5688 5688 5687 5686 5685 5685 5685 5685 5684 5684 5683 5683 5683 5684 5684 5685 5686 5687 5689 5692 5694
5705 5704 5703 5702 5700 5698 5696 5695 5694 5693 5692 5691 5690 5689 5688 5687 5686 5685 5686 5686 5685 5685 5684 5683 5681 5678 5675 5676 5677 5678 5679 5679 5679 5678 5678 5679 5680 5679 5680 5682 5683 5686 5689
5702 5700 5698 5696 5694 5692 5691 5690 5688 5687 5686 5685 5685 5683 5682 5681 5677 5676 5678 5680 5681 5680 5679 5678 5677 5674 5672 5670 5669 5669 5669 5671 5672 5672 5672 5673 5673 5674 5674 5675 5677 5678 5680
5698 5696 5693 5691 5689 5688 5686 5685 5682 5681 5680 5679 5678 5677 5677 5673 5670 5670 5670 5674 5675 5674 5673 5672 5671 5669 5667 5669 5668 5666 5666 5664 5663 5665 5667 5667 5667 5668 5668 5668 5669 5670 5672
5694 5692 5689 5687 5685 5683 5681 5679 5678 5678 5675 5674 5673 5672 5670 5667 5664 5664 5664 5668 5668 5667 5666 5665 5664 5663 5661 5660 5663 5663 5663 5662 5660 5661 5661 5661 5660 5660 5660 5661 5662 5664 5667
5690 5688 5686 5684 5681 5679 5677 5675 5674 5672 5670 5669 5668 5666 5664 5662 5658 5657 5657 5661 5662 5661 5659 5657 5656 5655 5650 5649 5653 5655 5656 5656 5654 5652 5651 5651 5651 5650 5650 5651 5654 5655 5657
5687 5686 5684 5681 5678 5675 5673 5671 5669 5667 5665 5664 5662 5661 5659 5657 5652 5650 5649 5654 5654 5654 5652 5651 5646 5644 5642 5641 5645 5647 5647 5648 5647 5648 5647 5647 5646 5646 5643 5643 5644 5644 5646
5684 5681 5678 5676 5673 5671 5668 5666 5664 5662 5660 5659 5656 5655 5653 5651 5647 5644 5641 5644 5644 5644 5644 5643 5641 5636 5634 5633 5633 5636 5635 5634 5637 5639 5640 5640 5639 5638 5636 5634 5634 5632 5633
5678 5675 5673 5671 5669 5666 5662 5660 5659 5657 5654 5653 5651 5649 5647 5645 5641 5638 5634 5633 5632 5634 5634 5634 5632 5627 5626 5625 5625 5624 5623 5623 5627 5628 5629 5629 5628 5627 5625 5624 5622 5621 5621
5672 5669 5667 5665 5662 5660 5658 5655 5653 5651 5649 5648 5646 5644 5642 5639 5636 5631 5628 5625 5624 5624 5626 5623 5620 5619 5618 5619 5617 5615 5614 5616 5616 5616 5617 5617 5616 5615 5613 5612 5612 5611 5611
5667 5664 5662 5660 5657 5655 5651 5650 5647 5645 5643 5641 5639 5637 5635 5632 5629 5626 5623 5621 5618 5617 5617 5615 5613 5612 5610 5609 5609 5609 5608 5606 5604 5604 5604 5604 5604 5602 5601 5601 5600 5599 5599
5662 5659 5656 5653 5651 5647 5644 5641 5640 5637 5635 5631 5630 5628 5626 5623 5618 5613 5611 5612 5610 5609 5607 5607 5608 5606 5606 5605 5603 5601 5598 5596 5594 5593 5592 5592 5591 5590 5589 5587 5585 5585 5585
5657 5653 5649 5646 5642 5640 5637 5632 5627 5625 5622 5619 5616 5615 5614 5609 5605 5603 5600 5598 5596 5595 5595 5598 5598 5597 5595 5594 5592 5590 5588 5586 5584 5582 5581 5579 5577 5577 5575 5574 5571 5571 5571
5650 5646 5642 5638 5635 5632 5629 5626 5622 5616 5612 5609 5606 5603 5601 5598 5595 5593 5591 5589 5587 5585 5587 5589 5588 5586 5585 5583 5581 5578 5577 5574 5572 5570 5568 5566 5564 5562 5561 5559 5558 5556 5555
5642 5637 5633 5630 5627 5624 5621 5618 5615 5612 5609 5605 5600 5595 5592 5589 5586 5584 5581 5580 5581 5580 5579 5578 5577 5575 5573 5571 5569 5566 5564 5562 5559 5556 5554 5552 5549 5547 5545 5544 5543 5541 5540
5632 5628 5625 5621 5618 5615 5612 5609 5606 5603 5601 5598 5595 5590 5584 5581 5578 5575 5572 5572 5573 5572 5570 5567 5565 5563 5560 5558 5556 5553 5550 5548 5545 5542 5540 5537 5535 5532 5531 5530 5528 5526 5523
5622 5617 5614 5612 5609 5606 5602 5599 5596 5594 5591 5589 5586 5583 5579 5574 5573 5570 5566 5564 5563 5561 5559 5556 5553 5550 5548 5545 5542 5539 5537 5534 5531 5529 5526 5523 5521 5519 5517 5515 5513 5511 5510
5612 5607 5602 5601 5599 5596 5593 5590 5586 5583 5581 5578 5576 5572 5566 5564 5563 5561 5558 5555 5552 5550 5547 5544 5541 5538 5534 5531 5528 5526 5523 5521 5518 5515 5513 5510 5508 5506 5503 5501 5499 5497 5496
5602 5598 5595 5592 5589 5585 5582 5579 5576 5573 5570 5568 5565 5562 5554 5553 5552 5550 5548 5545 5541 5538 5534 5531 5529 5525 5521 5518 5515 5513 5510 5508 5505 5502 5500 5498 5495 5493 5490 5488 5487 5485 5484
5590 5587 5583 5580 5577 5572 5569 5567 5565 5562 5560 5557 5554 5551 5547 5544 5541 5538 5536 5533 5529 5526 5522 5519 5516 5513 5509 5505 5502 5499 5496 5494 5491 5488 5485 5484 5482 5480 5477 5476 5474 5473 5472
5578 5575 5572 5569 5565 5562 5559 5556 5554 5551 5548 5545 5543 5539 5536 5533 5530 5526 5523 5520 5517 5514 5510 5506 5503 5500 5497 5493 5490 5486 5483 5480 5476 5474 5472 5471 5469 5468 5466 5464 5463 5461 5460
5565 5562 5559 5556 5553 5550 5547 5545 5542 5539 5536 5533 5530 5527 5524 5521 5517 5514 5511 5507 5504 5501 5497 5493 5490 5488 5485 5482 5478 5475 5471 5467 5463 5460 5458 5457 5457 5456 5454 5453 5452 5451 5450
5552 5549 5546 5544 5541 5538 5535 5532 5530 5527 5524 5521 5518 5515 5511 5508 5505 5501 5498 5495 5491 5488 5485 5482 5479 5476 5473 5471 5468 5464 5460 5456 5452 5449 5446 5446 5446 5445 5443 5443 5443 5442 5442